When you browse on this site, cookies collect data to enhance your experience and personalize the content and advertising you see.
Visit our Privacy Policy to learn more. By continuing to use the site, you agree to this use of cookies and data.
  • en France
  • Liste des pays
  • À 7 jours
  • Température de l'eau
  • Carte météo
  • Widgets météo
  • user-avatar
    Se connecter

    Météo par heure à Billingham

    Ce jour, 22 Août, Jeudi

    Heure Température Précipitation Vent Pression Humidité
    00:00 +14°C° 0 mm 7 m/s 762 mmHg 86%
    01:00 +14°C° 0.8 mm 7 m/s 762 mmHg 87%
    02:00 +14°C° 0.8 mm 7 m/s 761 mmHg 89%
    03:00 +14°C° 0.8 mm 6 m/s 761 mmHg 90%
    04:00 +14°C° 0.3 mm 6 m/s 761 mmHg 90%
    05:00 +14°C° 0.3 mm 5 m/s 761 mmHg 91%
    06:00 +14°C° 0 mm 4 m/s 762 mmHg 92%
    07:00 +15°C° 0.1 mm 5 m/s 762 mmHg 91%
    08:00 +15°C° 0.1 mm 5 m/s 762 mmHg 90%
    09:00 +16°C° 0.1 mm 6 m/s 761 mmHg 89%
    10:00 +16°C° 0.2 mm 6 m/s 761 mmHg 88%
    11:00 +17°C° 0.2 mm 6 m/s 761 mmHg 86%
    12:00 +17°C° 0.2 mm 6 m/s 761 mmHg 85%
    13:00 +18°C° 0 mm 7 m/s 761 mmHg 83%
    14:00 +18°C° 0 mm 7 m/s 761 mmHg 81%
    15:00 +20°C° 0 mm 8 m/s 761 mmHg 79%
    16:00 +18°C° 0 mm 8 m/s 761 mmHg 81%
    17:00 +18°C° 0 mm 8 m/s 761 mmHg 82%
    18:00 +18°C° 0 mm 8 m/s 761 mmHg 83%
    19:00 +18°C° 0 mm 8 m/s 762 mmHg 84%
    20:00 +18°C° 0 mm 7 m/s 762 mmHg 84%
    21:00 +17°C° 0 mm 7 m/s 763 mmHg 85%
    22:00 +17°C° 0 mm 7 m/s 763 mmHg 86%
    23:00 +17°C° 0 mm 6 m/s 763 mmHg 87%

    Demain, 23 Août, Vendredi

    Heure Température Précipitation Vent Pression Humidité
    00:00 +16°C° 0 mm 6 m/s 763 mmHg 88%
    01:00 +16°C° 0 mm 6 m/s 763 mmHg 89%
    02:00 +16°C° 0 mm 5 m/s 763 mmHg 90%
    03:00 +16°C° 0 mm 5 m/s 764 mmHg 91%
    04:00 +16°C° 0 mm 5 m/s 764 mmHg 91%
    05:00 +16°C° 0 mm 5 m/s 764 mmHg 90%
    06:00 +16°C° 0 mm 5 m/s 764 mmHg 90%
    07:00 +17°C° 0 mm 5 m/s 764 mmHg 85%
    08:00 +19°C° 0 mm 5 m/s 765 mmHg 81%
    09:00 +20°C° 0 mm 6 m/s 765 mmHg 76%
    10:00 +21°C° 0 mm 6 m/s 765 mmHg 74%
    11:00 +22°C° 0 mm 5 m/s 765 mmHg 71%
    12:00 +23°C° 0 mm 5 m/s 765 mmHg 69%
    13:00 +23°C° 0 mm 5 m/s 765 mmHg 68%
    14:00 +23°C° 0 mm 4 m/s 765 mmHg 67%
    15:00 +25°C° 0 mm 4 m/s 765 mmHg 66%
    16:00 +24°C° 0.1 mm 3 m/s 764 mmHg 69%
    17:00 +24°C° 0.1 mm 2 m/s 764 mmHg 73%
    18:00 +23°C° 0.1 mm 1 m/s 764 mmHg 76%
    19:00 +21°C° 0 mm 2 m/s 764 mmHg 80%
    20:00 +20°C° 0 mm 2 m/s 764 mmHg 84%
    21:00 +19°C° 0 mm 2 m/s 764 mmHg 88%
    22:00 +18°C° 0 mm 2 m/s 764 mmHg 89%
    23:00 +18°C° 0 mm 2 m/s 764 mmHg 90%

    Après-demain, 24 Août, Samedi

    Heure Température Précipitation Vent Pression Humidité
    00:00 +17°C° 0 mm 2 m/s 764 mmHg 91%
    01:00 +17°C° 0 mm 2 m/s 763 mmHg 91%
    02:00 +17°C° 0 mm 2 m/s 763 mmHg 91%
    03:00 +16°C° 0 mm 2 m/s 763 mmHg 92%
    04:00 +16°C° 0 mm 2 m/s 763 mmHg 92%
    05:00 +16°C° 0 mm 2 m/s 763 mmHg 92%
    06:00 +16°C° 0 mm 2 m/s 763 mmHg 92%
    07:00 +18°C° 0 mm 2 m/s 763 mmHg 86%
    08:00 +19°C° 0 mm 3 m/s 763 mmHg 80%
    09:00 +21°C° 0 mm 3 m/s 763 mmHg 73%
    10:00 +22°C° 0 mm 4 m/s 763 mmHg 67%
    11:00 +23°C° 0 mm 4 m/s 763 mmHg 61%
    12:00 +25°C° 0 mm 4 m/s 762 mmHg 55%
    13:00 +25°C° 0 mm 4 m/s 762 mmHg 53%
    14:00 +26°C° 0 mm 4 m/s 762 mmHg 51%
    15:00 +26°C° 0 mm 4 m/s 762 mmHg 48%
    16:00 +25°C° 0 mm 4 m/s 762 mmHg 54%
    17:00 +25°C° 0 mm 4 m/s 761 mmHg 60%
    18:00 +23°C° 0 mm 4 m/s 761 mmHg 66%
    19:00 +21°C° 0 mm 4 m/s 761 mmHg 70%
    20:00 +20°C° 0 mm 3 m/s 761 mmHg 74%
    21:00 +18°C° 0 mm 3 m/s 762 mmHg 78%
    22:00 +18°C° 0 mm 3 m/s 762 mmHg 80%
    23:00 +17°C° 0 mm 2 m/s 761 mmHg 82%

    25 Août, Dimanche

    Heure Température Précipitation Vent Pression Humidité
    00:00 +17°C° 0 mm 2 m/s 761 mmHg 84%
    01:00 +17°C° 0 mm 2 m/s 761 mmHg 84%
    02:00 +18°C° 0 mm 1 m/s 761 mmHg 85%
    03:00 +18°C° 0 mm 1 m/s 761 mmHg 85%
    04:00 +18°C° 0 mm 1 m/s 761 mmHg 85%
    05:00 +18°C° 0 mm 1 m/s 761 mmHg 84%
    06:00 +18°C° 0 mm 1 m/s 761 mmHg 84%
    07:00 +20°C° 0 mm 1 m/s 761 mmHg 78%
    08:00 +21°C° 0 mm 1 m/s 761 mmHg 72%
    09:00 +23°C° 0 mm 1 m/s 761 mmHg 66%
    10:00 +24°C° 0 mm 2 m/s 761 mmHg 62%
    11:00 +25°C° 0 mm 2 m/s 761 mmHg 59%
    12:00 +27°C° 0 mm 3 m/s 761 mmHg 55%
    13:00 +27°C° 0 mm 3 m/s 761 mmHg 56%
    14:00 +27°C° 0 mm 3 m/s 761 mmHg 56%
    15:00 +27°C° 0 mm 4 m/s 761 mmHg 57%
    16:00 +26°C° 0 mm 4 m/s 761 mmHg 61%
    17:00 +25°C° 0 mm 3 m/s 761 mmHg 66%
    18:00 +24°C° 0 mm 3 m/s 761 mmHg 71%
    19:00 +22°C° 0 mm 3 m/s 762 mmHg 73%
    20:00 +20°C° 0 mm 3 m/s 762 mmHg 76%
    21:00 +19°C° 0 mm 2 m/s 762 mmHg 79%
    22:00 +19°C° 0 mm 2 m/s 762 mmHg 79%
    23:00 +18°C° 0 mm 2 m/s 762 mmHg 80%

    26 Août, Lundi

    Heure Température Précipitation Vent Pression Humidité
    00:00 +19°C° 0 mm 1 m/s 762 mmHg 81%
    01:00 +18°C° 0 mm 1 m/s 762 mmHg 82%
    02:00 +18°C° 0 mm 1 m/s 762 mmHg 83%
    03:00 +18°C° 0 mm 1 m/s 761 mmHg 84%
    04:00 +18°C° 0 mm 1 m/s 762 mmHg 84%
    05:00 +17°C° 0 mm 2 m/s 762 mmHg 85%
    06:00 +17°C° 0 mm 2 m/s 762 mmHg 85%
    07:00 +19°C° 0 mm 2 m/s 762 mmHg 80%
    08:00 +21°C° 0 mm 2 m/s 761 mmHg 75%
    09:00 +24°C° 0 mm 3 m/s 761 mmHg 70%
    10:00 +25°C° 0 mm 3 m/s 761 mmHg 67%
    11:00 +26°C° 0 mm 3 m/s 761 mmHg 63%
    12:00 +27°C° 0 mm 4 m/s 761 mmHg 59%
    13:00 +28°C° 0 mm 3 m/s 761 mmHg 57%
    14:00 +28°C° 0 mm 3 m/s 761 mmHg 55%
    15:00 +29°C° 0 mm 3 m/s 761 mmHg 53%
    16:00 +28°C° 0 mm 3 m/s 760 mmHg 57%
    17:00 +27°C° 0 mm 3 m/s 760 mmHg 62%
    18:00 +26°C° 0 mm 2 m/s 760 mmHg 66%
    19:00 +24°C° 0 mm 2 m/s 760 mmHg 71%
    20:00 +23°C° 0 mm 2 m/s 761 mmHg 75%
    21:00 +20°C° 0 mm 2 m/s 761 mmHg 80%
    22:00 +20°C° 0 mm 2 m/s 761 mmHg 82%
    23:00 +19°C° 0 mm 2 m/s 760 mmHg 84%

    27 Août, Mardi

    Heure Température Précipitation Vent Pression Humidité
    00:00 +19°C° 0 mm 1 m/s 760 mmHg 85%
    01:00 +19°C° 0 mm 1 m/s 760 mmHg 86%
    02:00 +19°C° 0 mm 1 m/s 760 mmHg 88%
    03:00 +18°C° 0 mm 1 m/s 759 mmHg 89%
    04:00 +18°C° 0 mm 1 m/s 759 mmHg 89%
    05:00 +18°C° 0 mm 1 m/s 759 mmHg 89%
    06:00 +18°C° 0 mm 1 m/s 759 mmHg 90%
    07:00 +19°C° 0 mm 1 m/s 759 mmHg 84%
    08:00 +20°C° 0 mm 2 m/s 758 mmHg 78%
    09:00 +21°C° 0 mm 2 m/s 758 mmHg 72%
    10:00 +23°C° 0 mm 2 m/s 758 mmHg 67%
    11:00 +24°C° 0 mm 2 m/s 758 mmHg 62%
    12:00 +25°C° 0 mm 2 m/s 758 mmHg 57%
    13:00 +26°C° 0 mm 3 m/s 757 mmHg 56%
    14:00 +26°C° 0 mm 3 m/s 757 mmHg 55%
    15:00 +26°C° 0 mm 3 m/s 756 mmHg 54%
    16:00 +26°C° 0 mm 3 m/s 756 mmHg 60%
    17:00 +25°C° 0 mm 2 m/s 756 mmHg 66%
    18:00 +24°C° 0 mm 2 m/s 756 mmHg 72%
    19:00 +23°C° 0.1 mm 2 m/s 756 mmHg 76%
    20:00 +22°C° 0.1 mm 1 m/s 756 mmHg 80%
    21:00 +20°C° 0.1 mm 1 m/s 756 mmHg 84%
    22:00 +20°C° 0.7 mm 1 m/s 756 mmHg 87%
    23:00 +19°C° 0.7 mm 2 m/s 756 mmHg 90%
    Voir plus